Location: Montbazon
(47.2835°N, 0.6999°E)
Time: 16:01:19
(UTC+00:00)

Cosmos 2369 Rocket - Pass Details

Date: 08 November 2025
Orbit: 826 x 853 km, 71.0° (Epoch: 12 December)

Event Time Altitude Azimuth Distance (km) Brightness Sun altitude
Rises 05:27:21 0° 337° (NNW) 3,406 5.0 -14.4°
Reaches altitude 10° 05:30:08 10° 349° (N) 2,472 4.4 -14.0°
Maximum altitude 05:35:02 29° 49° (NE) 1,517 4.0 -13.1°
Drops below altitude 10° 05:39:55 10° 108° (ESE) 2,475 6.1 -12.3°
Sets 05:42:42 0° 120° (ESE) 3,409 6.9 -11.9°
